Filtermöglichkeiten

Zertifikate-Typ:
Basiswert-Typ:
Herkunft:
Branche:
Basiswert:
Typ:
Quanto:
Restlaufzeit:
Hebel:
Abst. Strike:
Spread:

Suchergebnisse Alle Zertifikate

WKN Underlying Laufzeit Art Spread rel. Restlaufzeit Sparplan Bid Ask
JQ1ZK6 General Dynamics 26.08.22 29.900,00% 4 nein 0,0010 0,30
JQ1ZKF Honeywell Int. 26.08.22 29.900,00% 4 nein 0,0010 0,30
JQ1X0K EUR/USD (Euro / US-Dollar) 26.08.22 29.900,00% 4 nein 0,0010 0,30
JA7UV7 Puma 26.08.22 29.900,00% 4 nein 0,0010 0,30
JA7V25 Silber 26.08.22 29.900,00% 4 nein 0,0010 0,30
JA7VDN EUR/USD (Euro / US-Dollar) 26.08.22 29.900,00% 4 nein 0,0010 0,30
JA7U6R Dow Jones Industrial Average 26.08.22 29.900,00% 4 nein 0,0010 0,30
JA7UW9 Qiagen 26.08.22 29.900,00% 4 nein 0,0010 0,30
JA7U6S Dow Jones Industrial Average 26.08.22 29.900,00% 4 nein 0,0010 0,30
JA7UW4 Qiagen 26.08.22 29.900,00% 4 nein 0,0010 0,30
JA7UVC Puma 26.08.22 29.900,00% 4 nein 0,0010 0,30
JA71FK Puma 26.08.22 29.900,00% 4 nein 0,0010 0,30
JA71DP Shell 26.08.22 29.900,00% 4 nein 0,0010 0,30
JA78MK Puma 26.08.22 29.900,00% 4 nein 0,0010 0,30
JA78P8 Puma 26.08.22 29.900,00% 4 nein 0,0010 0,30
JA78LT MTU Aero Engines 26.08.22 29.900,00% 4 nein 0,0010 0,30
JA81B0 Aurubis 26.08.22 29.900,00% 4 nein 0,0010 0,30
JA81AZ Aurubis 26.08.22 29.900,00% 4 nein 0,0010 0,30
JA81B5 Aurubis 26.08.22 29.900,00% 4 nein 0,0010 0,30
JA81B6 Aurubis 26.08.22 29.900,00% 4 nein 0,0010 0,30
JA858E Mercedes-Benz Group 26.08.22 29.900,00% 4 nein 0,0010 0,30
JA8J6B Wacker Chemie 26.08.22 29.900,00% 4 nein 0,0010 0,30
JA9247 Aurubis 26.08.22 29.900,00% 4 nein 0,0010 0,30
JA9DMQ EUR/USD (Euro / US-Dollar) 26.08.22 29.900,00% 4 nein 0,0010 0,30
JA9DLA Aurubis 26.08.22 29.900,00% 4 nein 0,0010 0,30
JA9DJ7 Ballard Power 26.08.22 29.900,00% 4 nein 0,0010 0,30
JA672N Cadence Design Systems 26.08.22 29.900,00% 4 nein 0,0010 0,30
JA672L Ballard Power 26.08.22 29.900,00% 4 nein 0,0010 0,30
JA7M49 EUR/USD (Euro / US-Dollar) 24.08.22 29.900,00% 2 nein 0,0010 0,30
JA7M3N EUR/USD (Euro / US-Dollar) 24.08.22 29.900,00% 2 nein 0,0010 0,30
JA7M3R EUR/USD (Euro / US-Dollar) 24.08.22 29.900,00% 2 nein 0,0010 0,30
JA7UAX Eli Lilly and Company 26.08.22 29.900,00% 4 nein 0,0010 0,30
JA7TFB Capgemini 26.08.22 29.900,00% 4 nein 0,0010 0,30
JA7T6J Airbus SE 26.08.22 29.900,00% 4 nein 0,0010 0,30
JA7UW8 Qiagen 26.08.22 29.900,00% 4 nein 0,0010 0,30
JA7UV8 Puma 26.08.22 29.900,00% 4 nein 0,0010 0,30
JA7UV6 Puma 26.08.22 29.900,00% 4 nein 0,0010 0,30
JA7ZJ7 MTU Aero Engines 26.08.22 14.900,00% 4 nein 0,0020 0,30
JA6WFL Hershey Company 26.08.22 9.900,00% 4 nein 0,0020 0,20
JA7VCM TotalEnergies 26.08.22 - nein -   -  
Seite:: 1 | 2 | 3 | 4 |
| 6 | 7 | 8 | 9 | ... | 625     

Spalten für Suchergebnisse "Alle Zertifikate" auswählen

            

Werbung
finanzen.net zero
finanzen.net zero

Oskar

ETF-Sparplan

Oskar ist der einfache und intelligente ETF-Sparplan. Er übernimmt die ETF-Auswahl, ist steuersmart, transparent und kostengünstig.
Zur klassischen Ansicht wechseln